Weather History for Bozeman, MT

Change the Weather History Date:

Sunday, February 3, 2013

  Actual Average Record
Temperature  
Mean Temperature 21 °F 25 °F  
Max Temperature 32 °F 37 °F 59 °F (1953)
Min Temperature 9 °F 13 °F -36 °F (1996)
Degree Days  
Heating Degree Days 44    
Month to date heating degree days 118  
Since 1 July heating degree days 4753  
Cooling Degree Days 0    
Month to date cooling degree days 0  
Year to date cooling degree days 0  
Moisture  
Dew Point 14 °F    
Average Humidity 74    
Maximum Humidity 84    
Minimum Humidity 63    
Precipitation  
Precipitation 0.00 in 0.01 in 0.35 in (1986)
Month to date precipitation T 0.04  
Year to date precipitation 0.24 0.52  
Snow  
Snow 0.00 in 0.10 in 3.50 in (1986)
Month to date snowfall T 0.4  
Since 1 July snowfall 16.9 17.8  
Snow Depth 4.00 in    
Sea Level Pressure  
Sea Level Pressure 30.20 in    
Wind  
Wind Speed 4 mph (SSE)    
Max Wind Speed 10 mph    
Max Gust Speed 12 mph    
Visibility 10 miles    
Events      
T = Trace of Precipitation, MM = Missing Value Source: NWS Daily Summary

Daily Weather History Graph

Daily Weather History Graph

Search for Another Location

Airport:

Trip Planner

Search our weather history database for the weather conditions in past years. The results will help you decide how hot, cold, wet, or windy it might be!

Date:

Astronomy

Feb. 03, 2013 Rise Set
Actual Time 7:43 AM MST 5:34 PM MST
Civil Twilight 7:11 AM MST 6:05 PM MST
Nautical Twilight 6:36 AM MST 6:41 PM MST
Astronomical Twilight 6:01 AM MST 7:16 PM MST
Moon 1:16 AM MST (2/3) 11:11 AM MST (2/3)
Length of Visible Light 10h 53m
Length of Day
9h 50m
Waning Gibbous, 48% of the Moon is Illuminated
Feb 3
Waning Gibbous
Feb 10
New
Feb 17
First Quarter
Feb 25
Full
Mar 4
Last Quarter

Hourly Weather History & Observations

Time (MST) Temp. Windchill Dew Point Humidity Pressure Visibility Wind Dir Wind Speed Gust Speed Precip Events Conditions
1:56 AM 14.0 °F 8.2 °F 8.1 °F 77% 30.36 in 10.0 mi SE 3.5 mph - N/A   Clear
2:56 AM 15.1 °F 2.5 °F 9.0 °F 77% 30.33 in 10.0 mi SE 10.4 mph - N/A   Clear
3:56 AM 16.0 °F 6.3 °F 9.0 °F 74% 30.27 in 10.0 mi South 6.9 mph - N/A   Clear
4:56 AM 12.0 °F - 7.0 °F 80% 30.28 in 10.0 mi Calm Calm - N/A   Clear
5:56 AM 10.4 °F 4.0 °F 5.0 °F 79% 30.10 in 10.0 mi ENE 3.5 mph - N/A   Clear
6:56 AM 12.9 °F 6.9 °F 8.1 °F 81% 30.24 in 10.0 mi Variable 3.5 mph - N/A   Clear
7:56 AM 10.9 °F 4.7 °F 5.0 °F 77% 30.25 in 10.0 mi SE 3.5 mph - N/A   Clear
8:56 AM 15.1 °F 5.2 °F 10.0 °F 80% 30.25 in 9.0 mi NW 6.9 mph - N/A   Clear
9:56 AM 21.0 °F 11.4 °F 14.0 °F 74% 30.25 in 10.0 mi South 8.1 mph - N/A   Clear
10:56 AM 24.1 °F 15.2 °F 17.1 °F 75% 30.23 in 10.0 mi SE 8.1 mph - N/A   Clear
11:56 AM 26.1 °F - 18.0 °F 71% 30.24 in 10.0 mi Calm Calm - N/A   Clear
12:56 PM 26.1 °F 21.9 °F 18.0 °F 71% 30.22 in 10.0 mi ENE 3.5 mph - N/A   Clear
1:56 PM 28.0 °F 22.8 °F 18.0 °F 66% 30.20 in 10.0 mi South 4.6 mph - N/A   Clear
2:56 PM 30.9 °F 26.2 °F 19.0 °F 61% 30.17 in 10.0 mi East 4.6 mph - N/A   Clear
3:56 PM 30.9 °F - 19.0 °F 61% 30.16 in 10.0 mi Calm Calm - N/A   Mostly Cloudy
4:56 PM 32.0 °F 26.4 °F 21.2 °F 64% 29.99 in 10.0 mi South 5.8 mph - N/A   Overcast
5:56 PM 30.0 °F - 19.0 °F 64% 30.15 in 10.0 mi Calm Calm - N/A   Scattered Clouds
6:56 PM 23.0 °F - 18.0 °F 81% 30.18 in 10.0 mi Calm Calm - N/A   Clear
7:56 PM 23.0 °F 15.8 °F 16.0 °F 74% 30.18 in 10.0 mi South 5.8 mph - N/A   Clear
8:56 PM 23.0 °F 14.7 °F 16.0 °F 74% 30.16 in 10.0 mi SSE 6.9 mph - N/A   Mostly Cloudy
9:56 PM 25.0 °F 18.1 °F 17.1 °F 72% 30.13 in 10.0 mi SSE 5.8 mph - N/A   Overcast
10:56 PM 26.1 °F - 18.0 °F 71% 30.12 in 10.0 mi Calm Calm - N/A   Overcast
11:56 PM 25.0 °F 20.7 °F 18.0 °F 75% 30.11 in 10.0 mi SSE 3.5 mph - N/A   Overcast